Weather History for Eagle River, WI

Change the Weather History Date:

Tuesday, April 1, 2014

  Actual Average Record
Temperature  
Mean Temperature 32 °F -  
Max Temperature 45 °F 42 °F 55 °F (1997)
Min Temperature 20 °F 23 °F 6 °F (1999)
Degree Days  
Heating Degree Days 32    
Moisture  
Dew Point 21 °F    
Average Humidity 72    
Maximum Humidity 88    
Minimum Humidity 54    
Precipitation  
Precipitation 0.00 in - - ()
Sea Level Pressure  
Sea Level Pressure 29.64 in    
Wind  
Wind Speed 11 mph (WSW)    
Max Wind Speed 21 mph    
Max Gust Speed 30 mph    
Visibility 9 miles    
Events Snow    
Averages and records for this station are not official NWS values.
T = Trace of Precipitation, MM = Missing Value Source: NWS Daily Summary

Daily Weather History Graph

Daily Weather History Graph

Search for Another Location

Airport:

Trip Planner

Search our weather history database for the weather conditions in past years. The results will help you decide how hot, cold, wet, or windy it might be!

Date:

Astronomy

Apr. 01, 2014 Rise Set
Actual Time 6:36 AM CDT 7:25 PM CDT
Civil Twilight 6:06 AM CDT 7:55 PM CDT
Nautical Twilight 5:30 AM CDT 8:31 PM CDT
Astronomical Twilight 4:53 AM CDT 9:09 PM CDT
Moon 7:33 AM CDT (4/1) 9:56 PM CDT (4/1)
Length of Visible Light 13h 49m
Length of Day
12h 48m
Waxing Crescent, 5% of the Moon is Illuminated
Apr 1
Waxing Crescent
Apr 7
First Quarter
Apr 15
Full
Apr 22
Last Quarter
Apr 29
New

Hourly Weather History & Observations

Time (CDT) Temp. Windchill Dew Point Humidity Pressure Visibility Wind Dir Wind Speed Gust Speed Precip Events Conditions
12:15 AM 44.8 °F 41.6 °F 29.1 °F 54% 29.49 in 10.0 mi SE 5.8 mph - N/A   Scattered Clouds
12:35 AM 45.0 °F 41.2 °F 29.7 °F 55% 29.48 in 10.0 mi SE 6.9 mph - N/A   Overcast
12:55 AM 43.9 °F 39.3 °F 30.0 °F 58% 29.47 in 10.0 mi SE 8.1 mph - N/A   Mostly Cloudy
1:15 AM 45.3 °F 41.1 °F 31.1 °F 58% 29.47 in 10.0 mi SE 8.1 mph - N/A   Mostly Cloudy
1:35 AM 43.2 °F 38.4 °F 30.2 °F 60% 29.47 in 10.0 mi SE 8.1 mph - N/A   Mostly Cloudy
1:55 AM 41.5 °F 35.9 °F 30.0 °F 64% 29.46 in 10.0 mi ESE 9.2 mph - N/A   Mostly Cloudy
2:15 AM 40.8 °F 35.0 °F 30.2 °F 66% 29.44 in 10.0 mi ESE 9.2 mph - N/A   Scattered Clouds
2:35 AM 40.1 °F 33.6 °F 30.6 °F 69% 29.43 in 10.0 mi SE 10.4 mph - N/A   Clear
2:55 AM 40.3 °F 34.9 °F 30.9 °F 69% 29.42 in 10.0 mi SE 8.1 mph - N/A   Clear
3:15 AM 41.0 °F 36.4 °F 31.1 °F 68% 29.42 in 10.0 mi SE 6.9 mph - N/A   Mostly Cloudy
3:35 AM 41.4 °F 36.2 °F 31.8 °F 69% 29.42 in 10.0 mi SSE 8.1 mph - N/A   Overcast
3:55 AM 41.5 °F 38.6 °F 32.0 °F 69% 29.41 in 10.0 mi South 4.6 mph - N/A   Overcast
4:15 AM 41.0 °F 37.1 °F 32.0 °F 70% 29.41 in 10.0 mi South 5.8 mph - N/A   Overcast
4:35 AM 41.4 °F 34.7 °F 32.0 °F 69% 29.41 in 10.0 mi SSW 11.5 mph 17.3 mph N/A   Overcast
4:55 AM 39.2 °F 32.0 °F 31.1 °F 73% 29.42 in 10.0 mi SW 11.5 mph 18.4 mph N/A   Overcast
5:15 AM 37.2 °F 29.1 °F 29.8 °F 75% 29.42 in 10.0 mi WSW 12.7 mph 20.7 mph N/A   Overcast
5:35 AM 35.6 °F 27.5 °F 29.1 °F 77% 29.43 in 10.0 mi SSW 11.5 mph 16.1 mph N/A   Overcast
5:55 AM 34.9 °F 27.7 °F 28.4 °F 77% 29.43 in 10.0 mi SW 9.2 mph 17.3 mph N/A   Overcast
6:15 AM 33.6 °F 25.6 °F 28.0 °F 80% 29.43 in 10.0 mi SW 10.4 mph 19.6 mph N/A   Overcast
6:35 AM 32.4 °F 22.1 °F 27.9 °F 83% 29.44 in 7.0 mi WSW 15.0 mph 20.7 mph N/A   Overcast
6:55 AM 32.0 °F 21.6 °F 27.9 °F 85% 29.45 in 3.0 mi SW 15.0 mph 19.6 mph N/A   Overcast
7:15 AM 31.3 °F 22.7 °F 28.0 °F 88% 29.46 in 4.0 mi SW 10.4 mph - N/A   Overcast
7:35 AM 30.7 °F 20.0 °F 26.6 °F 85% 29.47 in 7.0 mi SW 15.0 mph - N/A   Overcast
7:55 AM 29.8 °F 20.9 °F 24.8 °F 81% 29.48 in 10.0 mi SSW 10.4 mph 21.9 mph N/A   Overcast
8:15 AM 29.8 °F 18.0 °F 25.0 °F 82% 29.49 in 7.0 mi WSW 17.3 mph - N/A   Overcast
8:35 AM 28.9 °F 19.2 °F 25.9 °F 88% 29.49 in 1.5 mi WSW 11.5 mph - N/A   Overcast
8:55 AM 28.2 °F 16.8 °F 24.3 °F 85% 29.50 in 3.0 mi WSW 15.0 mph 25.3 mph N/A   Overcast
9:15 AM 28.2 °F 17.7 °F 23.4 °F 82% 29.50 in 10.0 mi SW 12.7 mph - N/A Snow Light Snow
9:35 AM 28.2 °F 18.9 °F 23.2 °F 81% 29.51 in 5.0 mi SW 10.4 mph 16.1 mph N/A Snow Light Snow
9:55 AM 27.5 °F 16.3 °F 22.6 °F 82% 29.51 in 5.0 mi SW 13.8 mph 21.9 mph N/A Snow Light Snow
10:15 AM 27.9 °F 17.3 °F 23.0 °F 82% 29.52 in 5.0 mi WSW 12.7 mph 19.6 mph N/A   Haze
10:35 AM 28.4 °F 19.1 °F 23.4 °F 81% 29.52 in 7.0 mi SW 10.4 mph 23.0 mph N/A   Overcast
10:55 AM 28.8 °F 17.9 °F 23.9 °F 82% 29.53 in 5.0 mi WSW 13.8 mph 18.4 mph N/A   Haze
11:15 AM 29.3 °F 17.3 °F 23.4 °F 78% 29.53 in 10.0 mi WSW 17.3 mph 24.2 mph N/A   Overcast
11:35 AM 29.3 °F 17.7 °F 23.0 °F 77% 29.53 in 10.0 mi WSW 16.1 mph 26.5 mph N/A   Overcast
11:55 AM 29.3 °F 17.0 °F 23.5 °F 79% 29.54 in 7.0 mi WSW 18.4 mph 24.2 mph N/A   Overcast
12:15 PM 29.3 °F 19.6 °F 24.4 °F 82% 29.56 in 2.0 mi West 11.5 mph 18.4 mph N/A   Overcast
12:35 PM 27.7 °F 15.2 °F 23.7 °F 85% 29.58 in 1.5 mi West 17.3 mph 26.5 mph N/A   Overcast
12:55 PM 24.6 °F 10.5 °F 20.3 °F 84% 29.60 in 5.0 mi West 19.6 mph 27.6 mph N/A   Overcast
1:15 PM 23.4 °F 10.1 °F 17.2 °F 77% 29.62 in 10.0 mi West 16.1 mph 29.9 mph N/A   Overcast
1:35 PM 22.6 °F 8.7 °F 15.6 °F 74% 29.64 in 10.0 mi WNW 17.3 mph 26.5 mph N/A   Overcast
1:55 PM 22.6 °F 10.7 °F 15.1 °F 73% 29.65 in 10.0 mi West 12.7 mph 20.7 mph N/A   Overcast
2:15 PM 22.3 °F 7.4 °F 14.2 °F 71% 29.67 in 10.0 mi WNW 19.6 mph 28.8 mph N/A Snow Light Snow
2:35 PM 21.9 °F 7.8 °F 13.5 °F 70% 29.68 in 10.0 mi West 17.3 mph 26.5 mph N/A Snow Light Snow
2:55 PM 21.6 °F 6.5 °F 12.6 °F 68% 29.70 in 10.0 mi West 19.6 mph 27.6 mph N/A Snow Light Snow
3:15 PM 21.2 °F 8.3 °F 11.8 °F 67% 29.71 in 10.0 mi West 13.8 mph 21.9 mph N/A   Overcast
3:35 PM 20.7 °F 7.1 °F 11.3 °F 67% 29.73 in 10.0 mi West 15.0 mph 26.5 mph N/A Snow Light Snow
3:55 PM 20.7 °F 7.1 °F 11.3 °F 67% 29.74 in 10.0 mi WNW 15.0 mph 23.0 mph N/A Snow Light Snow
4:15 PM 21.2 °F 6.8 °F 12.0 °F 68% 29.75 in 10.0 mi WNW 17.3 mph 25.3 mph N/A Snow Light Snow
4:35 PM 21.2 °F 5.6 °F 11.7 °F 67% 29.76 in 10.0 mi NW 20.7 mph 28.8 mph N/A   Overcast
4:55 PM 21.6 °F 7.3 °F 11.8 °F 66% 29.77 in 10.0 mi WNW 17.3 mph 24.2 mph N/A   Overcast
5:15 PM 21.6 °F 7.8 °F 10.6 °F 63% 29.80 in 10.0 mi WNW 16.1 mph 29.9 mph N/A   Overcast
5:35 PM 22.1 °F 7.6 °F 11.3 °F 63% 29.81 in 10.0 mi NW 18.4 mph 26.5 mph N/A   Overcast
5:55 PM 22.5 °F 10.5 °F 12.0 °F 64% 29.82 in 10.0 mi WNW 12.7 mph 24.2 mph N/A   Overcast
6:15 PM 23.0 °F 11.1 °F 12.7 °F 65% 29.83 in 10.0 mi WNW 12.7 mph 20.7 mph N/A   Overcast
6:35 PM 23.5 °F 13.0 °F 13.6 °F 66% 29.84 in 10.0 mi West 10.4 mph 18.4 mph N/A   Overcast
6:55 PM 23.9 °F 13.5 °F 14.5 °F 67% 29.85 in 10.0 mi WNW 10.4 mph 20.7 mph N/A   Overcast
7:15 PM 23.9 °F 13.5 °F 14.7 °F 68% 29.86 in 10.0 mi WNW 10.4 mph - N/A   Overcast
7:35 PM 23.9 °F 12.9 °F 14.9 °F 69% 29.88 in 10.0 mi West 11.5 mph 17.3 mph N/A   Overcast
7:55 PM 24.3 °F 15.4 °F 15.1 °F 68% 29.89 in 10.0 mi WNW 8.1 mph - N/A   Overcast
8:15 PM 24.4 °F 15.6 °F 15.1 °F 68% 29.91 in 10.0 mi WNW 8.1 mph - N/A   Overcast
8:35 PM 24.6 °F 13.8 °F 15.4 °F 68% 29.92 in 10.0 mi WNW 11.5 mph - N/A   Overcast
8:55 PM 24.8 °F 14.6 °F 16.0 °F 69% 29.94 in 10.0 mi WNW 10.4 mph 18.4 mph N/A   Overcast
9:15 PM 24.8 °F 13.4 °F 15.8 °F 69% 29.94 in 10.0 mi WNW 12.7 mph 19.6 mph N/A   Overcast
9:35 PM 24.8 °F 14.0 °F 15.8 °F 69% 29.95 in 10.0 mi WNW 11.5 mph 21.9 mph N/A   Overcast
9:55 PM 24.4 °F 11.9 °F 16.0 °F 70% 29.96 in 10.0 mi NW 15.0 mph 20.7 mph N/A   Overcast
10:15 PM 24.3 °F 12.7 °F 16.0 °F 71% 29.96 in 10.0 mi WNW 12.7 mph 23.0 mph N/A   Overcast
10:35 PM 23.9 °F 11.2 °F 15.6 °F 71% 29.96 in 10.0 mi WNW 15.0 mph 19.6 mph N/A   Overcast
10:55 PM 23.9 °F 12.3 °F 15.1 °F 69% 29.97 in 10.0 mi WNW 12.7 mph 26.5 mph N/A   Overcast
11:15 PM 23.7 °F 10.1 °F 15.3 °F 70% 29.97 in 10.0 mi WNW 17.3 mph 20.7 mph N/A   Overcast
11:35 PM 23.7 °F 12.1 °F 15.1 °F 70% 29.97 in 10.0 mi WNW 12.7 mph 18.4 mph N/A   Overcast
11:55 PM 23.5 °F 12.4 °F 14.9 °F 70% 29.97 in 10.0 mi NW 11.5 mph 17.3 mph N/A   Overcast